• In Italy
  • List of Countries
  • For 7 days
  • Water Temperature
  • Satellite Maps
  • Weather Map
  • Weather Widgets
  • user-avatar
    Login

    Hourly Weather Budapest

    Today, 19 February, Monday

    Time Temperature Precipitation Wind Pressure Humidity
    00:00 -1°C° 0 mm 2 mps 761 mmHg 82%
    01:00 -2°C° 0 mm 3 mps 760 mmHg 80%
    02:00 -2°C° 0 mm 3 mps 760 mmHg 79%
    03:00 -2°C° 0 mm 3 mps 760 mmHg 79%
    04:00 -2°C° 0 mm 3 mps 760 mmHg 78%
    05:00 -4°C° 0 mm 3 mps 760 mmHg 77%
    06:00 -4°C° 0 mm 3 mps 759 mmHg 77%
    07:00 -4°C° 0 mm 3 mps 759 mmHg 76%
    08:00 -2°C° 0 mm 3 mps 759 mmHg 70%
    09:00 -1°C° 0 mm 3 mps 759 mmHg 63%
    10:00 0°C° 0 mm 3 mps 759 mmHg 57%
    11:00 +1°C° 0 mm 3 mps 758 mmHg 54%
    12:00 +1°C° 0 mm 4 mps 758 mmHg 52%
    13:00 +3°C° 0 mm 4 mps 757 mmHg 50%
    14:00 +3°C° 0 mm 3 mps 757 mmHg 53%
    15:00 +3°C° 0 mm 3 mps 756 mmHg 55%
    16:00 +3°C° 0 mm 3 mps 756 mmHg 58%
    17:00 +2°C° 0 mm 3 mps 756 mmHg 62%
    18:00 +1°C° 0 mm 3 mps 756 mmHg 66%
    19:00 0°C° 0 mm 3 mps 756 mmHg 70%
    20:00 0°C° 0 mm 3 mps 755 mmHg 70%
    21:00 0°C° 0 mm 3 mps 755 mmHg 70%
    22:00 0°C° 0 mm 3 mps 755 mmHg 69%
    23:00 0°C° 0.2 mm 3 mps 755 mmHg 71%

    Tomorrow, 20 February, Tuesday

    Time Temperature Precipitation Wind Pressure Humidity
    00:00 0°C° 0.2 mm 3 mps 755 mmHg 73%
    01:00 0°C° 0.2 mm 3 mps 755 mmHg 74%
    02:00 -1°C° 0.1 mm 3 mps 754 mmHg 74%
    03:00 -1°C° 0.1 mm 3 mps 754 mmHg 75%
    04:00 -1°C° 0.1 mm 3 mps 753 mmHg 75%
    05:00 -2°C° 0.1 mm 4 mps 753 mmHg 77%
    06:00 -2°C° 0.1 mm 4 mps 753 mmHg 79%
    07:00 -2°C° 0.1 mm 4 mps 753 mmHg 80%
    08:00 -1°C° 0.3 mm 4 mps 753 mmHg 81%
    09:00 -1°C° 0.3 mm 4 mps 753 mmHg 82%
    10:00 -1°C° 0.3 mm 4 mps 752 mmHg 83%
    11:00 0°C° 0.5 mm 4 mps 752 mmHg 83%
    12:00 0°C° 0.5 mm 4 mps 752 mmHg 82%
    13:00 0°C° 0.5 mm 4 mps 752 mmHg 82%
    14:00 0°C° 0.9 mm 4 mps 751 mmHg 84%
    15:00 0°C° 0.9 mm 4 mps 751 mmHg 85%
    16:00 0°C° 0.9 mm 4 mps 751 mmHg 86%
    17:00 0°C° 0.9 mm 4 mps 751 mmHg 87%
    18:00 0°C° 0.9 mm 4 mps 751 mmHg 88%
    19:00 +1°C° 0.9 mm 3 mps 751 mmHg 89%
    20:00 +1°C° 0.7 mm 3 mps 751 mmHg 90%
    21:00 +1°C° 0.7 mm 3 mps 751 mmHg 90%
    22:00 +1°C° 0.7 mm 3 mps 751 mmHg 90%
    23:00 +1°C° 0.5 mm 3 mps 751 mmHg 90%

    Day after tomorrow, 21 February, Wednesday

    Time Temperature Precipitation Wind Pressure Humidity
    00:00 0°C° 0.5 mm 3 mps 752 mmHg 90%
    01:00 0°C° 0.5 mm 3 mps 752 mmHg 91%
    02:00 0°C° 0.4 mm 3 mps 752 mmHg 91%
    03:00 0°C° 0.4 mm 3 mps 752 mmHg 91%
    04:00 0°C° 0.4 mm 3 mps 752 mmHg 92%
    05:00 0°C° 0.2 mm 3 mps 752 mmHg 92%
    06:00 0°C° 0.2 mm 3 mps 752 mmHg 93%
    07:00 0°C° 0.2 mm 3 mps 752 mmHg 93%
    08:00 0°C° 0.3 mm 3 mps 752 mmHg 94%
    09:00 0°C° 0.3 mm 3 mps 753 mmHg 96%
    10:00 0°C° 0.3 mm 3 mps 753 mmHg 97%
    11:00 +1°C° 0.2 mm 3 mps 753 mmHg 97%
    12:00 +2°C° 0.2 mm 2 mps 753 mmHg 97%
    13:00 +2°C° 0.2 mm 2 mps 752 mmHg 96%
    14:00 +2°C° 0.1 mm 2 mps 752 mmHg 96%
    15:00 +2°C° 0.1 mm 2 mps 752 mmHg 95%
    16:00 +3°C° 0.1 mm 2 mps 752 mmHg 95%
    17:00 +2°C° 0.1 mm 2 mps 752 mmHg 93%
    18:00 +2°C° 0.1 mm 2 mps 752 mmHg 92%
    19:00 +2°C° 0.1 mm 2 mps 752 mmHg 90%
    20:00 +1°C° 0.1 mm 3 mps 752 mmHg 89%
    21:00 0°C° 0.1 mm 3 mps 752 mmHg 87%
    22:00 0°C° 0.1 mm 3 mps 752 mmHg 86%
    23:00 0°C° 0.1 mm 3 mps 752 mmHg 85%

    22 February, Thursday

    Time Temperature Precipitation Wind Pressure Humidity
    00:00 0°C° 0.1 mm 3 mps 752 mmHg 85%
    01:00 -1°C° 0.1 mm 3 mps 752 mmHg 85%
    02:00 -2°C° 0.1 mm 4 mps 752 mmHg 85%
    03:00 -2°C° 0.1 mm 4 mps 752 mmHg 85%
    04:00 -2°C° 0.1 mm 4 mps 751 mmHg 85%
    05:00 -2°C° 0.1 mm 4 mps 751 mmHg 85%
    06:00 -2°C° 0.1 mm 4 mps 751 mmHg 85%
    07:00 -2°C° 0.1 mm 4 mps 751 mmHg 84%
    08:00 -2°C° 0 mm 5 mps 751 mmHg 84%
    09:00 -1°C° 0 mm 5 mps 751 mmHg 84%
    10:00 0°C° 0 mm 5 mps 751 mmHg 84%
    11:00 0°C° 0 mm 5 mps 751 mmHg 83%
    12:00 +1°C° 0 mm 5 mps 751 mmHg 83%
    13:00 +2°C° 0 mm 6 mps 751 mmHg 82%
    14:00 +2°C° 0 mm 5 mps 750 mmHg 81%
    15:00 +2°C° 0 mm 5 mps 750 mmHg 80%
    16:00 +2°C° 0 mm 5 mps 750 mmHg 79%
    17:00 +1°C° 0.4 mm 5 mps 750 mmHg 79%
    18:00 +1°C° 0.4 mm 5 mps 751 mmHg 80%
    19:00 +1°C° 0.4 mm 4 mps 751 mmHg 80%
    20:00 0°C° 0.2 mm 5 mps 751 mmHg 80%
    21:00 0°C° 0.2 mm 5 mps 751 mmHg 81%
    22:00 -1°C° 0.2 mm 5 mps 751 mmHg 81%
    23:00 -1°C° 0 mm 5 mps 751 mmHg 81%

    23 February, Friday

    Time Temperature Precipitation Wind Pressure Humidity
    00:00 -1°C° 0 mm 5 mps 751 mmHg 81%
    01:00 -1°C° 0 mm 5 mps 751 mmHg 81%
    02:00 -1°C° 0.2 mm 4 mps 751 mmHg 82%
    03:00 -1°C° 0.2 mm 4 mps 751 mmHg 83%
    04:00 -2°C° 0.2 mm 4 mps 751 mmHg 85%
    05:00 -2°C° 0.3 mm 4 mps 751 mmHg 85%
    06:00 -2°C° 0.3 mm 5 mps 751 mmHg 86%
    07:00 -2°C° 0.3 mm 5 mps 751 mmHg 87%
    08:00 -2°C° 0.4 mm 5 mps 751 mmHg 86%
    09:00 -1°C° 0.4 mm 5 mps 751 mmHg 86%
    10:00 -1°C° 0.4 mm 5 mps 751 mmHg 85%
    11:00 -1°C° 0.5 mm 5 mps 751 mmHg 85%
    12:00 -1°C° 0.5 mm 5 mps 751 mmHg 86%
    13:00 0°C° 0.5 mm 5 mps 751 mmHg 86%
    14:00 0°C° 0.5 mm 4 mps 751 mmHg 86%
    15:00 0°C° 0.5 mm 4 mps 751 mmHg 86%
    16:00 0°C° 0.5 mm 4 mps 751 mmHg 85%
    17:00 -1°C° 0.1 mm 4 mps 752 mmHg 84%
    18:00 -1°C° 0.1 mm 4 mps 752 mmHg 82%
    19:00 -1°C° 0.1 mm 5 mps 752 mmHg 80%
    20:00 -2°C° 0 mm 5 mps 752 mmHg 78%
    21:00 -2°C° 0 mm 5 mps 753 mmHg 76%
    22:00 -4°C° 0 mm 6 mps 753 mmHg 74%
    23:00 -5°C° 0 mm 5 mps 753 mmHg 73%

    24 February, Saturday

    Time Temperature Precipitation Wind Pressure Humidity
    00:00 -6°C° 0 mm 5 mps 753 mmHg 73%
    01:00 -7°C° 0 mm 5 mps 754 mmHg 72%
    02:00 -7°C° 0 mm 5 mps 754 mmHg 71%
    03:00 -8°C° 0 mm 5 mps 754 mmHg 69%
    04:00 -8°C° 0 mm 5 mps 754 mmHg 68%
    05:00 -10°C° 0 mm 5 mps 755 mmHg 67%
    06:00 -9°C° 0 mm 4 mps 756 mmHg 65%
    07:00 -9°C° 0 mm 4 mps 756 mmHg 64%
    08:00 -8°C° 0 mm 4 mps 757 mmHg 60%
    09:00 -8°C° 0 mm 5 mps 758 mmHg 56%
    10:00 -7°C° 0 mm 5 mps 758 mmHg 53%
    11:00 -6°C° 0 mm 5 mps 758 mmHg 51%
    12:00 -6°C° 0 mm 5 mps 758 mmHg 49%
    13:00 -4°C° 0 mm 4 mps 758 mmHg 48%
    14:00 -4°C° 0 mm 4 mps 758 mmHg 50%
    15:00 -4°C° 0 mm 4 mps 758 mmHg 51%
    16:00 -4°C° 0 mm 3 mps 758 mmHg 53%
    17:00 -5°C° 0 mm 3 mps 758 mmHg 55%
    18:00 -6°C° 0 mm 3 mps 758 mmHg 57%
    19:00 -7°C° 0 mm 3 mps 759 mmHg 58%
    20:00 -7°C° 0 mm 3 mps 759 mmHg 59%
    21:00 -6°C° 0 mm 2 mps 759 mmHg 59%
    22:00 -6°C° 0 mm 2 mps 759 mmHg 60%
    23:00 -7°C° 0 mm 2 mps 759 mmHg 61%
    Show more